Mason, MI

3:11 PM EDT on March 29, 2017 (GMT -0400)
Mason Jewett

Weather History for KTEW - September, 2013

Change the Weather History Date:

Friday, September 27, 2013

  Actual Average (KLAN) Record (KLAN)
Temperature  
Mean Temperature 59 °F -  
Max Temperature 77 °F 68 °F 88 °F (1891)
Min Temperature 41 °F 45 °F 25 °F (1869)
Degree Days  
Heating Degree Days 6    
Growing Degree Days 9 (Base 50)    
Moisture  
Dew Point 48 °F    
Average Humidity 71    
Maximum Humidity 94    
Minimum Humidity 38    
Precipitation  
Precipitation 0.00 in - - ()
Sea Level Pressure  
Sea Level Pressure 30.19 in    
Wind  
Wind Speed 2 mph (ESE)    
Max Wind Speed 9 mph    
Max Gust Speed -    
Visibility 8 miles    
Events Fog    
Averages and records for this station are not official NWS values.
T = Trace of Precipitation, MM = Missing Value Source: NWS Daily Summary

Daily Weather History Graph

Daily Weather History Graph

Search for Another Location

Airport or City:

Trip Planner

Search our weather history database for the weather conditions in past years. The results will help you decide how hot, cold, wet, or windy it might be!

Date:

Astronomy

Sep. 27, 2013 Rise Set
Actual Time 7:30 AM EDT 7:25 PM EDT
Civil Twilight 7:02 AM EDT 7:53 PM EDT
Nautical Twilight 6:29 AM EDT 8:26 PM EDT
Astronomical Twilight 5:56 AM EDT 8:59 PM EDT
Moon 12:18 AM EDT (9/27) 3:10 PM EDT (9/27)
Length of Visible Light 12h 51m
Length of Day
11h 54m
Last Quarter, 45% of the Moon is Illuminated
Sep 27
Last Quarter
Oct 4
New
Oct 11
First Quarter
Oct 18
Full
Oct 26
Last Quarter

Hourly Weather History & Observations

Time (EDT) Temp. Dew Point Humidity Pressure Visibility Wind Dir Wind Speed Gust Speed Precip Events Conditions
12:14 AM 49.6 °F 46.4 °F 89% 30.14 in 10.0 mi Calm Calm - N/A   Clear
12:34 AM 48.6 °F 44.8 °F 87% 30.15 in 10.0 mi Calm Calm - N/A   Clear
12:54 AM 47.7 °F 44.8 °F 90% 30.15 in 10.0 mi Calm Calm - N/A   Clear
1:13 AM 47.7 °F 45.1 °F 91% 30.15 in 10.0 mi Calm Calm - N/A   Clear
1:33 AM 48.0 °F 45.7 °F 92% 30.16 in 10.0 mi Calm Calm - N/A   Clear
1:54 AM 48.6 °F 45.0 °F 87% 30.16 in 10.0 mi Calm Calm - N/A   Clear
2:13 AM 48.0 °F 45.0 °F 89% 30.16 in 10.0 mi Calm Calm - N/A   Clear
2:33 AM 48.7 °F 46.4 °F 92% 30.17 in 10.0 mi Calm Calm - N/A   Clear
2:54 AM 46.8 °F 44.6 °F 92% 30.17 in 10.0 mi Calm Calm - N/A   Clear
3:13 AM 46.8 °F 44.6 °F 92% 30.17 in 10.0 mi Calm Calm - N/A   Clear
3:33 AM 45.3 °F 43.3 °F 93% 30.17 in 4.0 mi Calm Calm - N/A   Clear
3:54 AM 44.2 °F 42.1 °F 92% 30.17 in 0.5 mi Calm Calm - N/A Fog Fog
4:13 AM 43.7 °F 41.9 °F 93% 30.17 in 2.0 mi Calm Calm - N/A   Scattered Clouds
4:34 AM 44.4 °F 42.4 °F 93% 30.18 in 0.5 mi Calm Calm - N/A Fog Fog
4:54 AM 43.3 °F 41.5 °F 93% 30.19 in 0.5 mi Calm Calm - N/A Fog Fog
5:14 AM 43.7 °F 41.9 °F 93% 30.18 in 1.5 mi Calm Calm - N/A   Scattered Clouds
5:34 AM 43.0 °F 41.2 °F 93% 30.19 in 1.2 mi Calm Calm - N/A   Mist
5:54 AM 42.8 °F 41.0 °F 93% 30.20 in 1.8 mi Calm Calm - N/A   Mist
6:14 AM 43.0 °F 41.2 °F 93% 30.20 in - Calm Calm - N/A   Unknown
6:34 AM 43.2 °F 41.4 °F 93% 30.21 in - Calm Calm - N/A   Unknown
6:54 AM 42.6 °F 40.8 °F 93% 30.21 in 1.2 mi Calm Calm - N/A   Unknown
7:14 AM 42.3 °F 40.5 °F 93% 30.22 in 2.0 mi Calm Calm - N/A   Clear
7:34 AM 43.0 °F 41.2 °F 93% 30.22 in 0.5 mi Calm Calm - N/A Fog Fog
7:53 AM 41.9 °F 40.1 °F 93% 30.23 in 0.5 mi Calm Calm - N/A Fog Fog
8:14 AM 43.7 °F 42.1 °F 94% 30.23 in 10.0 mi Calm Calm - N/A   Clear
8:34 AM 46.0 °F 44.2 °F 93% 30.23 in 10.0 mi Calm Calm - N/A   Clear
8:53 AM 48.7 °F 46.9 °F 93% 30.23 in 10.0 mi Calm Calm - N/A   Clear
9:14 AM 52.2 °F 50.0 °F 92% 30.23 in 10.0 mi Calm Calm - N/A   Clear
9:34 AM 56.5 °F 52.7 °F 87% 30.23 in 10.0 mi Calm Calm - N/A   Clear
9:54 AM 59.9 °F 54.3 °F 82% 30.23 in 10.0 mi Calm Calm - N/A   Clear
10:14 AM 63.7 °F 54.3 °F 72% 30.24 in 10.0 mi Calm Calm - N/A   Clear
10:34 AM 66.2 °F 53.2 °F 63% 30.24 in 10.0 mi East 3.5 mph - N/A   Clear
10:54 AM 68.0 °F 52.0 °F 56% 30.24 in 10.0 mi ESE 5.8 mph - N/A   Clear
11:14 AM 68.9 °F 51.6 °F 54% 30.24 in 10.0 mi ESE 4.6 mph - N/A   Clear
11:34 AM 70.0 °F 51.4 °F 52% 30.24 in 10.0 mi ESE 8.1 mph - N/A   Clear
11:54 AM 70.7 °F 52.0 °F 51% 30.24 in 10.0 mi SE 5.8 mph - N/A   Clear
12:14 PM 71.4 °F 50.7 °F 48% 30.24 in 10.0 mi East 6.9 mph - N/A   Clear
12:34 PM 72.5 °F 51.6 °F 48% 30.24 in 10.0 mi ESE 9.2 mph - N/A   Clear
12:54 PM 73.2 °F 52.0 °F 47% 30.23 in 10.0 mi Calm Calm - N/A   Clear
1:14 PM 74.1 °F 51.8 °F 46% 30.23 in 10.0 mi SE 4.6 mph - N/A   Clear
1:34 PM 74.3 °F 51.1 °F 44% 30.22 in 10.0 mi ESE 6.9 mph - N/A   Clear
1:54 PM 74.5 °F 51.3 °F 44% 30.22 in 10.0 mi East 8.1 mph - N/A   Clear
2:14 PM 75.2 °F 51.3 °F 43% 30.22 in 10.0 mi ENE 4.6 mph - N/A   Clear
2:34 PM 75.6 °F 50.9 °F 42% 30.21 in 10.0 mi East 8.1 mph - N/A   Clear
2:54 PM 76.3 °F 49.6 °F 39% 30.21 in 10.0 mi SSE 5.8 mph - N/A   Clear
3:14 PM 76.1 °F 49.8 °F 40% 30.19 in 10.0 mi East 5.8 mph - N/A   Clear
3:34 PM 77.0 °F 50.9 °F 40% 30.19 in 10.0 mi SE 4.6 mph - N/A   Clear
3:53 PM 76.5 °F 49.3 °F 38% 30.19 in 10.0 mi East 4.6 mph - N/A   Clear
4:14 PM 76.3 °F 50.4 °F 40% 30.18 in 10.0 mi ESE 5.8 mph - N/A   Clear
4:34 PM 76.3 °F 49.8 °F 39% 30.18 in 10.0 mi SE 4.6 mph - N/A   Clear
4:54 PM 76.3 °F 51.4 °F 42% 30.17 in 10.0 mi ESE 8.1 mph - N/A   Clear
5:14 PM 75.6 °F 50.2 °F 41% 30.16 in 10.0 mi ESE 4.6 mph - N/A   Clear
5:34 PM 75.6 °F 50.9 °F 42% 30.16 in 10.0 mi ESE 3.5 mph - N/A   Clear
5:54 PM 74.7 °F 50.5 °F 43% 30.16 in 10.0 mi ESE 4.6 mph - N/A   Scattered Clouds
6:14 PM 73.4 °F 51.3 °F 46% 30.17 in 10.0 mi ESE 3.5 mph - N/A   Scattered Clouds
6:34 PM 71.6 °F 51.3 °F 49% 30.17 in 10.0 mi ESE 3.5 mph - N/A   Clear
6:54 PM 69.3 °F 52.2 °F 54% 30.17 in 10.0 mi ESE 3.5 mph - N/A   Clear
7:14 PM 68.2 °F 51.8 °F 56% 30.17 in 10.0 mi ESE 4.6 mph - N/A   Clear
7:34 PM 66.0 °F 52.0 °F 60% 30.17 in 10.0 mi ESE 3.5 mph - N/A   Clear
7:54 PM 64.4 °F 52.0 °F 64% 30.17 in 10.0 mi ESE 4.6 mph - N/A   Clear
8:14 PM 62.1 °F 52.0 °F 70% 30.17 in 10.0 mi ESE 3.5 mph - N/A   Clear
8:34 PM 62.1 °F 51.8 °F 69% 30.17 in 10.0 mi ESE 4.6 mph - N/A   Clear
8:54 PM 61.7 °F 51.3 °F 69% 30.17 in 10.0 mi ESE 5.8 mph - N/A   Clear
9:14 PM 61.3 °F 51.4 °F 70% 30.18 in 10.0 mi SE 5.8 mph - N/A   Clear
9:34 PM 60.3 °F 52.2 °F 75% 30.18 in 10.0 mi SSE 4.6 mph - N/A   Clear
9:54 PM 58.6 °F 52.3 °F 80% 30.19 in 10.0 mi SSE 4.6 mph - N/A   Clear
10:14 PM 58.5 °F 52.9 °F 82% 30.19 in 10.0 mi SSE 4.6 mph - N/A   Clear
10:34 PM 57.2 °F 52.3 °F 84% 30.19 in 10.0 mi SSE 4.6 mph - N/A   Clear
10:54 PM 57.7 °F 53.1 °F 84% 30.19 in 10.0 mi SSE 5.8 mph - N/A   Clear
11:14 PM 58.1 °F 53.1 °F 83% 30.19 in 10.0 mi SE 4.6 mph - N/A   Clear
11:34 PM 57.7 °F 53.1 °F 84% 30.19 in 10.0 mi SE 4.6 mph - N/A   Clear
11:54 PM 56.7 °F 52.5 °F 86% 30.19 in 10.0 mi SE 3.5 mph - N/A   Clear